| time (UTC) | temp F | wind direction | speed MPH | gust MPH | rain 1hr in | rain 24hr in | rain mn in | humidity % | barometer mb |
| 20260905120035 | 75 | 180 | 0.0 | 0.0 | 0.00 | 0.00 | 0.00 | 93 | 1006.2 |
| 20260905115035 | 76 | 180 | 0.0 | 0.0 | 0.00 | 0.00 | 0.00 | 94 | 1006.2 |
| 20260905114034 | 76 | 180 | 0.0 | 0.0 | 0.00 | 0.00 | 0.00 | 94 | 1006.2 |
| 20260905113035 | 76 | 180 | 0.0 | 0.0 | 0.00 | 0.00 | 0.00 | 95 | 1006.2 |
| 20260905112037 | 76 | 180 | 0.0 | 0.0 | 0.00 | 0.00 | 0.00 | 95 | 1006.2 |
| 20260905111036 | 76 | 180 | 0.0 | 0.0 | 0.00 | 0.00 | 0.00 | 95 | 1006.2 |
| 20260905110036 | 76 | 157 | 0.0 | 0.0 | 0.00 | 0.00 | 0.00 | 95 | 1006.2 |
| 20260905105036 | 76 | 157 | 0.0 | 0.0 | 0.00 | 0.00 | 0.00 | 95 | 1006.2 |
| 20260905104033 | 76 | 157 | 0.0 | 0.0 | 0.00 | 0.00 | 0.00 | 95 | 1005.9 |
| 20260905103037 | 76 | 157 | 0.0 | 0.0 | 0.00 | 0.00 | 0.00 | 95 | 1006.2 |
| 20260905101034 | 76 | 157 | 0.0 | 0.0 | 0.00 | 0.00 | 0.00 | 94 | 1006.2 |
| 20260905095133 | 76 | 180 | 0.0 | 0.0 | 0.00 | 0.00 | 0.00 | 95 | 1005.6 |
| 20260905094133 | 76 | 180 | 0.0 | 3.0 | 0.00 | 0.00 | 0.00 | 95 | 1005.6 |
| 20260905093135 | 76 | 254 | 1.0 | 4.0 | 0.00 | 0.00 | 0.00 | 96 | 1005.6 |
| 20260905091135 | 76 | 180 | 0.0 | 2.0 | 0.00 | 0.00 | 0.00 | 97 | 1005.9 |
| 20260905090134 | 76 | 180 | 0.0 | 0.0 | 0.00 | 0.00 | 0.00 | 97 | 1005.9 |
| 20260905084236 | 76 | 175 | 0.0 | 3.0 | 0.00 | 0.00 | 0.00 | 97 | 1005.9 |
| 20260905083334 | 76 | 180 | 0.0 | 0.0 | 0.00 | 0.00 | 0.00 | 97 | 1005.9 |
| 20260905082433 | 77 | 170 | 1.0 | 4.0 | 0.00 | 0.00 | 0.00 | 97 | 1005.9 |
| 20260905081435 | 77 | 179 | 3.0 | 6.0 | 0.00 | 0.00 | 0.00 | 97 | 1006.2 |
| 20260905080534 | 77 | 171 | 2.0 | 5.0 | 0.00 | 0.00 | 0.00 | 97 | 1006.2 |
| 20260905075534 | 76 | 175 | 1.0 | 5.0 | 0.00 | 0.00 | 0.00 | 96 | 1006.2 |
| 20260905074537 | 77 | 173 | 3.0 | 5.0 | 0.00 | 0.00 | 0.00 | 97 | 1006.2 |
| 20260905073633 | 76 | 165 | 1.0 | 4.0 | 0.00 | 0.00 | 0.00 | 97 | 1006.2 |
| 20260905072635 | 77 | 180 | 0.0 | 0.0 | 0.00 | 0.00 | 0.00 | 97 | 1006.6 |
| 20260905071733 | 77 | 180 | 0.0 | 0.0 | 0.00 | 0.00 | 0.00 | 96 | 1006.6 |
| 20260905065734 | 77 | 157 | 0.0 | 0.0 | 0.00 | 0.00 | 0.00 | 95 | 1006.6 |
| 20260905064832 | 77 | 180 | 0.0 | 0.0 | 0.00 | 0.00 | 0.00 | 94 | 1006.6 |
| 20260905063835 | 77 | 180 | 0.0 | 0.0 | 0.00 | 0.00 | 0.00 | 93 | 1006.2 |
| 20260905062934 | 77 | 157 | 0.0 | 0.0 | 0.00 | 0.00 | 0.00 | 93 | 1006.2 |
| 20260905062034 | 77 | 157 | 0.0 | 0.0 | 0.00 | 0.00 | 0.00 | 93 | 1006.6 |
| 20260905061032 | 78 | 180 | 0.0 | 3.0 | 0.00 | 0.00 | 0.00 | 92 | 1006.6 |
| 20260905060037 | 78 | 135 | 0.0 | 2.0 | 0.00 | 0.00 | 0.00 | 90 | 1006.2 |
| 20260905055034 | 78 | 180 | 0.0 | 0.0 | 0.00 | 0.00 | 0.00 | 89 | 1006.6 |
| 20260905054033 | 78 | 180 | 0.0 | 2.0 | 0.00 | 0.00 | 0.00 | 88 | 1006.6 |
| 20260905052133 | 78 | 180 | 0.0 | 2.0 | 0.00 | 0.00 | 0.00 | 87 | 1006.6 |
| 20260905044318 | 79 | 157 | 0.0 | 0.0 | 0.00 | 0.00 | 0.00 | 83 | 1006.2 |
| 20260905043319 | 79 | 178 | 0.0 | 3.0 | 0.00 | 0.00 | 0.00 | 83 | 1006.2 |
| 20260905042318 | 79 | 114 | 0.0 | 1.0 | 0.00 | 0.00 | 0.00 | 82 | 1006.2 |
| 20260905041320 | 79 | 180 | 0.0 | 1.0 | 0.00 | 0.00 | 0.00 | 82 | 1006.2 |
| 20260905040419 | 79 | 270 | 0.0 | 0.0 | 0.00 | 0.00 | 0.00 | 81 | 1006.2 |
| 20260905035419 | 80 | 135 | 0.0 | 0.0 | 0.00 | 0.00 | 0.00 | 80 | 1006.2 |
| 20260905034419 | 80 | 157 | 1.0 | 3.0 | 0.00 | 0.00 | 0.00 | 79 | 1005.9 |
| 20260905033418 | 80 | 157 | 0.0 | 0.0 | 0.00 | 0.00 | 0.00 | 77 | 1005.9 |
| 20260905032419 | 81 | 157 | 0.0 | 0.0 | 0.00 | 0.00 | 0.00 | 76 | 1005.9 |
| 20260905031518 | 81 | 157 | 0.0 | 0.0 | 0.00 | 0.00 | 0.00 | 76 | 1005.6 |
| 20260905030520 | 81 | 157 | 0.0 | 1.0 | 0.00 | 0.00 | 0.00 | 74 | 1005.6 |
| 20260905025617 | 81 | 135 | 0.0 | 0.0 | 0.00 | 0.00 | 0.00 | 74 | 1005.6 |
| 20260905024621 | 81 | 135 | 0.0 | 0.0 | 0.00 | 0.00 | 0.00 | 74 | 1005.6 |
| 20260905023618 | 81 | 135 | 0.0 | 0.0 | 0.00 | 0.00 | 0.00 | 74 | 1005.6 |
| 20260905022717 | 81 | 135 | 0.0 | 0.0 | 0.00 | 0.00 | 0.00 | 73 | 1005.4 |
| 20260905021720 | 82 | 135 | 0.0 | 0.0 | 0.00 | 0.00 | 0.00 | 72 | 1005.2 |
| 20260905020717 | 82 | 135 | 0.0 | 0.0 | 0.00 | 0.00 | 0.00 | 72 | 1005.2 |
| 20260905015817 | 82 | 180 | 0.0 | 0.0 | 0.00 | 0.00 | 0.00 | 72 | 1005.2 |
| 20260905014819 | 82 | 180 | 0.0 | 1.0 | 0.00 | 0.00 | 0.00 | 72 | 1004.9 |
| 20260905012819 | 83 | 180 | 1.0 | 6.0 | 0.00 | 0.00 | 0.00 | 72 | 1004.9 |
| 20260905011817 | 84 | 112 | 0.0 | 2.0 | 0.00 | 0.00 | 0.00 | 72 | 1004.5 |
| 20260905010818 | 84 | 130 | 0.0 | 0.0 | 0.00 | 0.00 | 0.00 | 70 | 1004.5 |
| 20260905005917 | 84 | 150 | 1.0 | 4.0 | 0.00 | 0.00 | 0.00 | 70 | 1004.5 |
| 20260905004919 | 85 | 112 | 1.0 | 3.0 | 0.00 | 0.00 | 0.00 | 69 | 1004.2 |
| 20260905003918 | 85 | 137 | 0.0 | 1.0 | 0.00 | 0.00 | 0.00 | 67 | 1004.2 |
| 20260905002920 | 86 | 135 | 1.0 | 3.0 | 0.00 | 0.00 | 0.00 | 66 | 1003.5 |
| 20260905001919 | 87 | 135 | 1.0 | 3.0 | 0.00 | 0.00 | 0.00 | 63 | 1003.5 |
| 20260905000917 | 87 | 112 | 0.0 | 2.0 | 0.00 | 0.00 | 0.00 | 61 | 1003.5 |
| 20260904235919 | 87 | 112 | 0.0 | 0.0 | 0.00 | 0.00 | 0.00 | 62 | 1003.5 |
| 20260904234918 | 86 | 151 | 1.0 | 4.0 | 0.00 | 0.00 | 0.00 | 63 | 1003.5 |
| 20260904233919 | 86 | 91 | 1.0 | 3.0 | 0.00 | 0.00 | 0.00 | 61 | 1003.8 |
| 20260904231918 | 89 | 97 | 2.0 | 4.0 | 0.00 | 0.00 | 0.00 | 57 | 1003.2 |
| 20260904230919 | 89 | 112 | 1.0 | 3.0 | 0.00 | 0.00 | 0.00 | 57 | 1003.5 |
| 20260904225918 | 89 | 145 | 1.0 | 3.0 | 0.00 | 0.00 | 0.00 | 58 | 1003.5 |
| 20260904224917 | 89 | 135 | 1.0 | 3.0 | 0.00 | 0.00 | 0.00 | 60 | 1003.5 |
| 20260904223917 | 90 | 112 | 2.0 | 4.0 | 0.00 | 0.00 | 0.00 | 56 | 1003.2 |
| 20260904222919 | 92 | 180 | 0.0 | 1.0 | 0.00 | 0.00 | 0.00 | 49 | 1003.2 |
| 20260904222017 | 94 | 195 | 2.0 | 6.0 | 0.00 | 0.00 | 0.00 | 48 | 1002.8 |
| 20260904221019 | 93 | 143 | 3.0 | 4.0 | 0.00 | 0.00 | 0.00 | 49 | 1002.8 |
| 20260904215117 | 94 | 173 | 3.0 | 8.0 | 0.00 | 0.00 | 0.00 | 47 | 1002.8 |
| 20260904214216 | 94 | 179 | 1.0 | 4.0 | 0.00 | 0.00 | 0.00 | 45 | 1002.8 |
| 20260904213220 | 93 | 176 | 3.0 | 5.0 | 0.00 | 0.00 | 0.00 | 47 | 1002.8 |
| 20260904212220 | 93 | 224 | 4.0 | 6.0 | 0.00 | 0.00 | 0.00 | 53 | 1003.2 |
| 20260904210218 | 89 | 184 | 2.0 | 7.0 | 0.00 | 0.00 | 0.00 | 61 | 1004.2 |
| 20260904205218 | 88 | 180 | 0.0 | 0.0 | 0.00 | 0.00 | 0.00 | 67 | 1004.2 |
| 20260904204219 | 87 | 180 | 0.0 | 2.0 | 0.00 | 0.00 | 0.00 | 68 | 1004.2 |
| 20260904203217 | 87 | 139 | 0.0 | 2.0 | 0.00 | 0.00 | 0.00 | 68 | 1004.5 |
| 20260904202217 | 86 | 180 | 2.0 | 5.0 | 0.00 | 0.00 | 0.00 | 70 | 1004.9 |
| 20260904201218 | 86 | 180 | 0.0 | 2.0 | 0.00 | 0.00 | 0.00 | 71 | 1005.2 |
| 20260904200234 | 86 | 180 | 0.0 | 0.0 | 0.00 | 0.00 | 0.00 | 70 | 1005.6 |
| 20260904195318 | 85 | 177 | 0.0 | 0.0 | 0.00 | 0.00 | 0.00 | 71 | 1005.6 |
| 20260904193317 | 84 | 112 | 0.0 | 0.0 | 0.00 | 0.00 | 0.00 | 76 | 1005.6 |
| 20260904192318 | 83 | 157 | 0.0 | 1.0 | 0.00 | 0.00 | 0.00 | 79 | 1005.9 |
| 20260904191416 | 82 | 157 | 0.0 | 0.0 | 0.00 | 0.00 | 0.00 | 83 | 1006.2 |
| 20260904190417 | 83 | 180 | 0.0 | 0.0 | 0.00 | 0.00 | 0.00 | 83 | 1006.2 |
| 20260904184418 | 83 | 157 | 0.0 | 0.0 | 0.00 | 0.00 | 0.00 | 84 | 1006.6 |
| 20260904183518 | 83 | 112 | 0.0 | 2.0 | 0.00 | 0.00 | 0.00 | 84 | 1006.6 |
| 20260904182517 | 82 | 180 | 0.0 | 2.0 | 0.00 | 0.00 | 0.00 | 85 | 1006.9 |
| 20260904181518 | 82 | 180 | 0.0 | 1.0 | 0.00 | 0.00 | 0.00 | 84 | 1006.9 |
| 20260904175519 | 82 | 182 | 3.0 | 6.0 | 0.00 | 0.00 | 0.00 | 84 | 1006.9 |
| 20260904174517 | 82 | 180 | 2.0 | 4.0 | 0.00 | 0.00 | 0.00 | 85 | 1007.3 |
| 20260904173517 | 82 | 180 | 1.0 | 6.0 | 0.00 | 0.00 | 0.00 | 86 | 1007.3 |
| 20260904171520 | 82 | 180 | 0.0 | 0.0 | 0.00 | 0.00 | 0.00 | 88 | 1007.6 |
| 20260904170517 | 81 | 145 | 1.0 | 4.0 | 0.00 | 0.00 | 0.00 | 89 | 1007.3 |
| 20260904165519 | 82 | 180 | 0.0 | 0.0 | 0.00 | 0.00 | 0.00 | 87 | 1007.3 |
| 20260904163519 | 82 | 157 | 0.0 | 0.0 | 0.00 | 0.00 | 0.00 | 85 | 1006.9 |
| 20260904162517 | 82 | 157 | 0.0 | 0.0 | 0.00 | 0.00 | 0.00 | 85 | 1006.9 |
| 20260904160519 | 82 | 333 | 0.0 | 0.0 | 0.00 | 0.00 | 0.00 | 87 | 1006.9 |
| 20260904155517 | 81 | 337 | 0.0 | 0.0 | 0.00 | 0.00 | 0.00 | 89 | 1006.9 |
| 20260904154519 | 81 | 337 | 1.0 | 4.0 | 0.00 | 0.00 | 0.00 | 92 | 1006.9 |
| 20260904152517 | 80 | 292 | 0.0 | 0.0 | 0.00 | 0.00 | 0.00 | 95 | 1006.9 |
| 20260904150518 | 79 | 180 | 0.0 | 2.0 | 0.00 | 0.00 | 0.00 | 96 | 1006.9 |
| 20260904145516 | 78 | 152 | 0.0 | 1.0 | 0.00 | 0.00 | 0.00 | 97 | 1006.9 |
| 20260904144517 | 78 | 257 | 0.0 | 1.0 | 0.00 | 0.00 | 0.00 | 97 | 1007.3 |
| 20260904143519 | 78 | 180 | 0.0 | 2.0 | 0.00 | 0.00 | 0.00 | 97 | 1007.3 |
| 20260904142518 | 78 | 157 | 0.0 | 0.0 | 0.00 | 0.00 | 0.00 | 97 | 1006.9 |
| 20260904141517 | 78 | 174 | 0.0 | 5.0 | 0.00 | 0.00 | 0.00 | 97 | 1006.9 |
| 20260904140616 | 77 | 159 | 0.0 | 2.0 | 0.00 | 0.00 | 0.00 | 96 | 1006.9 |
| 20260904135617 | 77 | 179 | 1.0 | 5.0 | 0.00 | 0.00 | 0.00 | 96 | 1006.9 |
| 20260904134616 | 77 | 157 | 1.0 | 3.0 | 0.00 | 0.00 | 0.00 | 96 | 1006.9 |
| 20260904133617 | 78 | 270 | 0.0 | 2.0 | 0.00 | 0.00 | 0.00 | 97 | 1006.9 |
| 20260904132715 | 78 | 157 | 0.0 | 1.0 | 0.00 | 0.00 | 0.00 | 97 | 1006.9 |
| 20260904131718 | 78 | 180 | 1.0 | 4.0 | 0.00 | 0.00 | 0.00 | 97 | 1006.9 |
| 20260904130719 | 78 | 180 | 0.0 | 0.0 | 0.00 | 0.00 | 0.00 | 97 | 1006.9 |
| 20260904124816 | 77 | 180 | 0.0 | 1.0 | 0.00 | 0.00 | 0.00 | 96 | 1006.9 |
| 20260904123819 | 77 | 180 | 0.0 | 1.0 | 0.00 | 0.00 | 0.00 | 96 | 1006.9 |
| 20260904122817 | 77 | 135 | 0.0 | 0.0 | 0.00 | 0.00 | 0.00 | 95 | 1006.6 |
| 20260904121916 | 77 | 135 | 0.0 | 0.0 | 0.00 | 0.00 | 0.00 | 96 | 1006.6 |
| 20260904120917 | 77 | 112 | 0.0 | 0.0 | 0.00 | 0.00 | 0.00 | 95 | 1006.2 |